Location: Augustenthal
(51.7167°N, 10.2833°E)
Time: 12:20:23
(UTC+00:00)

Cosmos 1455 Rocket - Pass Details

Date: 04 October 2021
Orbit: 606 x 628 km, 82.5° (Epoch: 19 October)

Event Time Altitude Azimuth Distance (km) Brightness Sun altitude
Exits shadow 21:27:55 13° 322° (NW) 1,821 6.1 -38.6°
Drops below altitude 10° 21:28:53 10° 333° (NNW) 1,994 6.4 -38.7°
Sets 21:32:06 0° 359° (N) 2,911 7.2 -39.0°
